Theta_e
348 346 346 346 345 345 345 346 347 348 348 348 348 348 348 348 348 348 349 349 350 350 351 353 353 354 352 353 354 354 355 354 355 355 354 354 354 353 353 354 354 355
348 347 346 346 346 346 345 345 346 347 348 348 348 347 348 348 348 348 348 349 351 351 352 353 353 354 353 352 353 353 354 354 354 354 353 353 354 354 354 354 354 355
349 348 347 346 346 346 345 345 345 347 347 347 348 348 348 348 347 348 347 348 350 351 352 352 352 354 354 353 352 352 353 354 354 354 353 353 354 354 355 355 355 355
349 349 347 346 346 345 345 345 344 345 347 347 348 347 347 347 347 348 347 347 348 350 353 353 352 353 354 354 353 352 352 353 354 354 353 354 354 354 354 355 355 355
348 349 348 347 346 346 346 345 344 345 346 347 347 347 347 346 346 348 348 347 346 347 351 352 353 353 353 354 354 353 353 353 354 354 354 353 353 353 353 354 355 355
348 348 348 347 347 346 346 345 344 344 345 346 346 347 347 346 345 346 348 347 346 346 348 350 352 353 353 353 354 354 353 353 354 354 354 353 353 353 352 354 354 354
348 348 348 347 347 347 346 346 344 344 344 346 346 346 346 346 346 345 346 347 347 346 347 348 350 352 353 353 353 353 353 353 354 354 354 354 354 353 353 353 354 354
348 348 348 347 347 347 347 346 345 344 344 345 345 344 344 345 345 345 345 345 345 346 346 347 348 350 351 351 352 352 352 352 353 354 354 354 354 354 353 353 353 353
349 349 348 348 347 346 346 346 345 344 344 344 343 343 344 345 344 344 344 344 344 345 345 346 348 348 349 350 350 351 351 351 352 352 353 354 354 354 353 353 353 353
349 349 348 348 347 346 346 345 344 343 344 344 344 345 346 345 345 343 343 343 344 344 344 345 347 347 347 348 349 350 351 351 351 351 352 352 352 352 352 352 352 352
349 348 348 348 347 347 346 345 344 344 344 345 345 346 346 345 344 343 343 343 344 344 344 344 345 347 347 346 346 347 349 350 351 351 351 352 351 351 351 350 351 350
349 348 348 348 347 347 346 346 345 344 344 344 344 345 345 344 344 343 343 344 344 345 344 343 344 346 346 346 345 345 346 347 349 350 350 351 351 351 350 350 350 349
348 348 348 348 347 347 346 346 345 345 344 344 344 344 344 344 343 343 343 344 345 345 345 344 344 345 346 346 346 345 345 344 345 347 348 348 348 349 350 350 349 349
349 348 347 348 347 347 346 346 345 345 344 344 344 344 344 343 343 343 343 344 344 344 344 344 345 346 346 346 346 345 343 340 339 342 344 345 345 347 349 349 349 349
348 348 348 348 347 347 347 346 346 345 344 344 343 343 343 343 343 343 343 343 343 343 342 343 345 346 345 345 345 344 341 337 336 339 342 344 344 346 348 348 348 348
349 349 348 348 348 347 347 346 346 345 344 344 343 343 343 343 343 343 343 343 342 342 342 342 342 343 342 342 341 340 339 337 336 338 341 343 345 347 348 348 348 348
350 349 349 349 348 348 348 347 347 346 345 344 343 342 342 342 343 343 343 343 343 342 342 342 341 341 340 339 338 338 338 338 338 338 341 343 346 347 348 348 348 349
350 350 350 350 349 349 348 348 347 346 346 345 344 343 342 342 342 342 342 343 343 343 343 342 342 341 340 339 339 338 338 339 339 340 342 343 344 346 347 347 348 349
351 351 351 351 351 350 350 349 348 347 347 346 345 344 343 342 342 341 341 341 341 342 342 342 342 341 340 340 340 339 339 340 340 342 343 344 344 345 346 347 347 348
352 352 352 352 352 351 351 350 349 348 348 347 346 345 344 343 342 341 341 341 340 340 341 340 341 340 339 340 339 339 340 340 341 342 343 344 345 345 345 346 346 347
353 352 352 352 353 352 352 351 351 350 349 349 348 347 346 345 344 343 342 341 341 340 340 339 340 339 339 339 339 339 339 340 341 342 343 344 344 345 345 345 345 346
353 352 353 353 353 353 352 352 352 351 351 350 349 348 348 347 345 345 344 343 342 341 340 340 340 340 340 340 339 339 339 340 341 342 343 343 343 344 345 345 345 346
353 353 353 354 354 354 354 353 353 353 352 351 351 350 349 349 348 347 346 345 344 343 342 342 342 342 342 341 340 340 339 340 341 341 342 343 343 343 344 344 345 345
354 354 354 355 355 355 355 355 355 354 354 353 353 352 351 350 350 349 348 347 346 345 344 344 344 345 344 343 342 341 340 340 341 341 342 342 343 343 344 344 345 345
354 356 356 356 357 357 356 356 356 356 356 355 354 354 353 353 352 351 350 349 349 348 347 347 347 347 347 346 345 343 342 341 341 341 342 342 343 343 344 345 346 346
355 357 358 358 358 357 357 358 357 357 357 357 357 356 355 355 354 354 353 352 352 351 350 349 349 349 349 348 348 346 344 343 342 342 342 343 343 344 345 346 346 346
Wind_Speed
36 36 35 33 32 31 30 28 26 26 26 25 25 23 21 20 21 21 20 19 19 18 16 14 13 12 11 11 11 10 10 10 10 11 11 11 10 10 9 9 9 8
37 36 35 35 34 32 31 30 28 27 27 27 26 24 22 20 20 21 21 20 19 19 18 16 14 13 12 12 13 13 12 11 10 10 10 11 10 10 10 9 9 9
37 37 36 36 36 35 33 32 30 29 28 27 27 26 23 21 20 20 21 21 21 20 18 17 16 15 14 13 14 15 14 13 11 9 10 10 11 11 10 9 10 10
37 37 37 37 37 36 35 33 32 31 29 28 28 27 25 23 21 21 20 21 22 21 20 18 16 16 15 15 15 16 16 15 13 11 11 11 11 11 10 9 10 10
38 38 38 37 36 35 35 34 34 33 32 31 30 29 27 25 23 22 21 21 21 21 21 19 18 17 16 16 16 16 17 17 15 13 12 12 11 11 11 11 11 10
37 38 38 37 36 35 34 35 35 35 34 33 32 30 29 28 26 24 23 22 21 21 21 21 20 19 18 18 17 17 17 17 16 14 14 14 13 12 12 13 13 12
36 37 37 37 36 35 35 35 35 35 36 35 33 32 31 30 29 27 26 25 23 22 22 22 21 21 20 19 19 18 18 18 18 16 16 16 15 14 14 14 15 15
36 36 36 36 36 35 36 36 35 35 36 35 34 33 32 31 31 30 29 28 26 25 24 23 23 22 21 20 20 20 20 20 19 19 18 18 18 17 17 16 16 17
35 35 36 36 36 36 37 37 37 36 36 35 35 34 33 32 31 31 31 30 29 28 27 26 24 23 22 21 21 21 21 21 21 21 20 20 20 20 19 18 18 19
34 34 35 35 36 37 38 38 38 37 36 36 36 35 34 33 32 32 31 31 30 29 29 28 27 25 24 23 23 22 22 22 22 22 22 22 21 21 20 20 20 20
35 34 34 35 37 37 38 38 37 36 36 37 37 36 35 34 34 33 32 31 31 31 30 30 29 28 26 25 24 24 24 24 23 23 23 23 23 22 21 20 20 20
34 34 34 35 36 37 37 37 36 35 35 37 37 37 36 35 35 34 34 33 33 33 32 31 31 30 29 28 26 26 25 25 25 25 25 25 25 24 23 22 21 20
34 35 35 35 36 37 36 36 36 35 35 36 36 37 37 36 36 36 36 35 35 34 33 33 32 32 31 30 29 28 27 27 27 27 27 27 27 26 25 24 23 21
36 35 35 36 36 36 36 36 36 37 37 36 36 36 37 37 37 36 36 36 36 35 34 33 32 32 32 31 31 30 29 29 29 29 29 29 28 28 27 26 25 24
35 34 35 36 36 36 36 37 37 37 37 37 36 37 37 37 37 36 36 35 36 35 35 33 33 33 33 33 32 32 31 31 30 30 30 29 29 29 29 28 27 26
34 34 34 35 35 36 36 37 37 36 36 37 37 37 37 37 36 36 35 35 35 35 35 35 35 35 36 35 34 34 33 32 32 31 31 30 30 30 30 29 29 28
34 34 34 34 35 36 36 36 37 36 35 36 36 37 37 37 36 35 35 35 35 35 36 36 36 37 37 37 36 35 34 33 33 33 32 32 31 31 31 31 31 30
34 34 34 35 36 36 36 36 36 35 35 35 35 36 36 35 35 35 36 35 35 35 35 36 37 38 38 38 38 37 36 35 34 34 33 33 32 32 32 32 31 31
35 34 34 35 36 36 37 36 35 35 35 35 36 36 35 34 35 36 36 36 35 36 36 37 38 39 39 38 38 38 37 36 35 34 34 33 33 33 33 32 32 31
39 38 38 38 38 37 36 35 35 36 37 36 36 34 33 35 36 36 36 37 37 37 38 38 39 40 40 39 39 38 37 36 35 35 34 34 34 33 33 33 32 32
40 40 41 40 39 38 36 35 36 37 37 36 35 34 34 36 37 36 37 38 38 38 38 39 40 42 41 40 40 39 37 36 35 35 35 34 34 34 34 34 33 33
37 36 36 37 37 36 36 36 36 37 37 36 35 34 34 35 35 36 37 38 39 38 37 38 41 42 42 42 42 40 38 36 35 35 35 35 35 35 35 35 35 34
33 33 33 33 34 34 35 36 37 37 37 36 34 33 34 35 35 36 37 38 37 37 37 39 41 42 42 42 42 40 38 36 36 36 35 35 36 36 36 35 35 36
28 31 33 33 32 33 34 35 35 35 36 35 34 34 35 36 36 36 36 37 37 37 38 40 41 42 41 41 42 40 38 37 37 36 35 35 36 36 35 35 36 36
27 29 31 32 32 33 34 34 34 35 35 34 34 35 36 36 35 34 35 36 37 38 39 39 41 41 40 41 41 40 39 38 37 35 34 35 35 35 35 34 35 36
24 27 29 30 31 31 32 32 33 33 33 32 32 34 35 34 34 34 35 36 36 37 38 39 40 41 40 40 41 40 39 38 37 35 35 35 35 35 34 33 33 35
Wind_Direction
215 217 219 221 222 222 222 224 226 226 226 226 227 229 231 231 228 224 222 222 222 222 222 224 229 233 234 235 240 247 255 266 276 278 272 266 262 259 259 260 258 259
214 217 219 221 223 224 225 226 227 228 229 229 231 231 232 235 233 230 227 225 224 225 225 228 232 236 239 239 242 246 252 264 276 279 269 262 261 263 265 265 262 264
214 217 218 221 223 225 226 227 228 230 232 233 233 233 233 235 236 234 232 230 228 228 230 232 234 238 242 245 246 247 248 257 269 273 268 264 262 264 267 269 269 271
214 217 219 220 223 225 227 228 229 230 232 234 235 234 234 235 237 237 236 235 233 232 233 234 237 240 243 247 250 249 248 251 259 265 268 270 266 262 264 270 274 276
214 217 219 220 222 224 227 229 230 230 231 234 236 236 236 237 238 240 239 239 237 236 236 236 238 240 243 247 251 251 248 248 254 259 263 269 270 264 261 266 272 274
214 216 219 220 221 223 226 229 231 232 232 234 236 237 238 239 240 241 242 241 240 239 239 239 240 240 242 245 249 251 249 247 251 257 260 263 268 267 264 265 269 271
214 216 218 220 221 223 226 229 232 233 233 235 237 239 241 241 242 243 244 245 244 242 242 242 243 242 242 243 246 248 247 246 249 255 258 260 264 267 266 267 268 270
215 216 217 219 220 222 225 228 231 233 234 235 237 240 242 244 244 244 245 247 247 246 246 245 245 245 244 244 245 245 244 245 247 250 254 257 260 264 267 269 269 270
214 216 217 218 220 222 225 228 230 233 234 235 237 240 243 245 246 246 246 247 249 248 248 247 247 247 246 244 244 244 245 246 248 251 253 256 258 263 268 271 271 272
214 215 217 218 220 222 225 227 229 230 233 235 237 240 243 245 247 246 246 247 249 249 248 248 248 247 247 245 245 247 249 250 253 255 257 258 260 264 268 270 272 274
213 214 216 218 220 222 225 227 227 228 230 233 236 239 241 244 245 245 245 245 247 249 249 249 249 248 247 247 248 250 253 255 257 259 260 261 263 265 267 268 270 273
212 214 216 218 221 223 224 226 227 227 228 231 234 236 238 241 242 242 243 244 247 249 250 250 250 248 248 249 251 253 256 258 259 260 262 263 264 265 265 266 268 271
213 214 216 218 221 223 224 226 226 227 228 229 231 233 235 237 239 240 241 243 245 247 249 250 250 248 249 250 252 254 257 260 260 261 262 263 264 264 264 265 266 267
214 215 217 219 221 223 224 225 226 226 227 228 229 231 233 234 236 237 238 240 242 244 246 248 247 247 248 250 252 254 257 259 261 261 261 262 263 264 264 264 265 266
215 216 217 219 221 222 223 224 225 226 227 227 228 229 231 233 234 235 236 237 239 242 243 244 244 246 248 250 252 254 256 258 259 260 260 260 261 263 264 265 266 267
215 216 218 219 220 222 224 224 225 226 227 227 227 229 230 231 232 233 234 236 237 239 241 242 243 245 248 250 252 254 256 257 257 258 259 259 259 260 262 264 266 268
214 216 217 218 220 222 223 224 226 226 226 227 228 229 231 231 232 232 233 235 236 238 240 241 243 245 247 250 252 253 254 254 255 257 257 257 258 258 260 264 265 267
213 215 216 218 220 221 222 224 225 225 226 227 228 230 230 231 232 233 234 235 236 238 239 240 243 245 247 249 250 251 252 252 252 254 255 255 257 258 260 262 264 265
211 213 216 218 220 221 222 223 223 224 226 227 229 230 230 231 232 233 235 235 236 237 239 241 243 246 247 248 249 250 251 250 249 250 251 252 254 256 258 260 262 263
208 209 212 217 220 221 221 221 221 224 226 227 228 229 228 230 232 233 233 235 235 237 239 241 244 246 248 248 249 250 250 249 248 247 248 250 252 254 256 258 260 261
209 210 211 213 216 218 218 219 221 223 225 227 227 227 228 230 231 232 233 234 236 236 238 240 244 246 248 248 249 249 249 248 247 246 246 247 250 252 253 256 258 259
212 214 215 215 214 213 214 217 220 222 224 226 226 226 229 231 232 233 234 234 235 235 236 239 244 246 247 248 249 249 248 246 245 245 245 245 248 250 251 253 256 257
213 214 217 219 216 213 213 216 219 222 224 224 224 225 228 230 231 233 234 235 236 235 235 238 243 246 247 248 249 249 247 244 243 243 242 243 246 248 249 251 254 255
218 216 217 219 218 216 216 217 219 222 224 224 223 225 227 229 231 232 234 235 235 235 236 238 242 246 246 247 249 248 245 243 242 241 240 242 245 247 247 248 251 254
231 225 221 218 219 219 220 220 221 222 224 225 224 226 229 231 231 232 233 235 236 237 237 238 242 246 246 246 248 247 244 243 241 238 237 240 243 245 246 246 248 251
244 233 227 221 220 222 223 224 225 225 225 225 225 227 230 232 232 232 233 236 236 237 238 238 240 244 246 246 247 246 244 241 238 235 235 238 240 242 243 244 245 248